Weather History for Midland, MI

Change the Weather History Date:

Sunday, June 2, 2013

  Actual Average (KMBS) Record (KMBS)
Temperature  
Mean Temperature 56 °F 63 °F  
Max Temperature 68 °F 74 °F 87 °F (2007)
Min Temperature 43 °F 53 °F 42 °F (2003)
Degree Days  
Heating Degree Days 9    
Month to date heating degree days  
Since 1 June heating degree days  
Since 1 July heating degree days  
Cooling Degree Days 0    
Month to date cooling degree days  
Year to date cooling degree days  
Since 1 June cooling degree days  
Growing Degree Days 6 (Base 50)    
Moisture  
Dew Point 52 °F    
Average Humidity 79    
Maximum Humidity 97    
Minimum Humidity 61    
Precipitation  
Precipitation 0.01 in 0.10 in 0.34 in (2001)
Month to date precipitation 0.19  
Year to date precipitation 11.84  
Snow  
Snow 0.00 in - - ()
Month to date snowfall  
Since 1 June snowfall  
Since 1 July snowfall  
Snow Depth -    
Sea Level Pressure  
Sea Level Pressure 29.79 in    
Wind  
Wind Speed 7 mph (West)    
Max Wind Speed 18 mph    
Max Gust Speed 26 mph    
Visibility 10 miles    
Events Rain    
T = Trace of Precipitation, MM = Missing Value Source: NWS Daily Summary

Daily Weather History Graph

Daily Weather History Graph

Search for Another Location

Airport:

Trip Planner

Search our weather history database for the weather conditions in past years. The results will help you decide how hot, cold, wet, or windy it might be!

Date:

Astronomy

Jun. 02, 2013 Rise Set
Actual Time 5:57 AM EDT 9:12 PM EDT
Civil Twilight 5:22 AM EDT 9:48 PM EDT
Nautical Twilight 4:37 AM EDT 10:33 PM EDT
Astronomical Twilight 3:41 AM EDT 11:29 PM EDT
Moon 2:34 AM EDT (6/2) 3:33 PM EDT (6/2)
Length of Visible Light 16h 25m
Length of Day
15h 15m
Waning Crescent, 31% of the Moon is Illuminated
Jun 2
Waning Crescent
Jun 8
New
Jun 16
First Quarter
Jun 23
Full
Jun 30
Last Quarter

Hourly Weather History & Observations

Time (EDT) Temp. Windchill Dew Point Humidity Pressure Visibility Wind Dir Wind Speed Gust Speed Precip Events Conditions
12:12 AM 68.4 °F - 62.2 °F 81% 29.65 in 10.0 mi South 3.5 mph - N/A   Overcast
12:33 AM 67.5 °F - 62.1 °F 83% 29.64 in 10.0 mi SSW 3.5 mph - N/A   Scattered Clouds
12:52 AM 67.3 °F - 62.4 °F 84% 29.64 in 10.0 mi South 3.5 mph - N/A Rain Light Rain
1:12 AM 66.6 °F - 63.5 °F 90% 29.63 in 10.0 mi Calm Calm - N/A Rain Light Rain
1:33 AM 66.6 °F - 64.8 °F 94% 29.62 in 10.0 mi Calm Calm - N/A   Overcast
1:52 AM 65.7 °F - 64.0 °F 94% 29.61 in 10.0 mi Calm Calm - N/A   Overcast
2:12 AM 65.7 °F - 64.4 °F 96% 29.62 in 10.0 mi Calm Calm - N/A Rain Rain
2:33 AM 65.5 °F - 64.4 °F 96% 29.62 in 10.0 mi Calm Calm - N/A   Overcast
2:52 AM 65.3 °F - 64.4 °F 97% 29.62 in 10.0 mi SW 6.9 mph - N/A   Overcast
3:12 AM 65.3 °F - 63.5 °F 94% 29.62 in 10.0 mi SW 10.4 mph 19.6 mph N/A   Overcast
3:33 AM 64.8 °F - 63.0 °F 94% 29.61 in 10.0 mi SW 11.5 mph 17.3 mph N/A   Overcast
3:52 AM 64.4 °F - 63.0 °F 95% 29.62 in 10.0 mi SSW 6.9 mph - N/A   Overcast
4:13 AM 64.2 °F - 62.8 °F 95% 29.62 in 7.0 mi WSW 8.1 mph - N/A   Overcast
4:32 AM 64.0 °F - 62.4 °F 94% 29.62 in 5.0 mi WSW 10.4 mph - N/A   Overcast
4:52 AM 63.5 °F - 62.2 °F 96% 29.62 in 5.0 mi WSW 3.5 mph - N/A   Overcast
5:13 AM 63.1 °F - 61.7 °F 95% 29.62 in 10.0 mi WSW 4.6 mph - N/A   Overcast
5:32 AM 63.1 °F - 61.9 °F 96% 29.62 in 10.0 mi WSW 4.6 mph - N/A   Mostly Cloudy
5:52 AM 63.1 °F - 61.7 °F 95% 29.63 in 10.0 mi SW 6.9 mph - N/A   Overcast
6:13 AM 63.1 °F - 61.7 °F 95% 29.64 in 10.0 mi SW 6.9 mph - N/A   Overcast
6:32 AM 63.1 °F - 61.7 °F 95% 29.64 in 10.0 mi WSW 5.8 mph - N/A   Overcast
6:52 AM 63.0 °F - 61.7 °F 96% 29.64 in 10.0 mi SW 5.8 mph - N/A   Light Drizzle
7:13 AM 62.8 °F - 61.2 °F 94% 29.65 in 10.0 mi WSW 5.8 mph - N/A   Overcast
7:32 AM 63.0 °F - 61.2 °F 94% 29.66 in 10.0 mi SW 8.1 mph - N/A   Overcast
7:52 AM 63.1 °F - 61.7 °F 95% 29.67 in 7.0 mi WSW 6.9 mph - N/A Rain Light Rain
8:13 AM 63.1 °F - 61.7 °F 95% 29.67 in 7.0 mi WSW 9.2 mph - N/A   Light Drizzle
8:32 AM 63.1 °F - 61.2 °F 93% 29.68 in 10.0 mi WSW 9.2 mph - N/A   Overcast
8:52 AM 63.5 °F - 60.8 °F 91% 29.68 in 10.0 mi WSW 12.7 mph 16.1 mph N/A   Overcast
9:13 AM 63.7 °F - 60.3 °F 89% 29.69 in 10.0 mi WSW 11.5 mph 18.4 mph N/A   Overcast
9:32 AM 61.2 °F - 59.0 °F 93% 29.70 in 7.0 mi WNW 13.8 mph 21.9 mph 0.01 in Rain Light Rain
9:53 AM 56.5 °F - 54.3 °F 92% 29.74 in 4.0 mi WNW 18.4 mph 26.5 mph 0.01 in   Light Drizzle
10:13 AM 55.0 °F - 52.5 °F 91% 29.75 in 10.0 mi WNW 12.7 mph - N/A   Overcast
10:32 AM 56.5 °F - 51.8 °F 84% 29.76 in 10.0 mi WNW 16.1 mph 23.0 mph N/A   Overcast
10:53 AM 56.8 °F - 50.9 °F 80% 29.77 in 10.0 mi WNW 16.1 mph 24.2 mph N/A   Overcast
11:13 AM 58.1 °F - 49.8 °F 74% 29.78 in 10.0 mi WNW 17.3 mph 24.2 mph N/A   Overcast
11:32 AM 58.3 °F - 50.0 °F 74% 29.79 in 10.0 mi WNW 12.7 mph 20.7 mph N/A   Overcast
11:53 AM 58.5 °F - 48.9 °F 71% 29.79 in 10.0 mi WNW 16.1 mph 21.9 mph N/A   Overcast
12:12 PM 58.8 °F - 49.1 °F 70% 29.80 in 10.0 mi NW 15.0 mph 23.0 mph N/A   Overcast
12:32 PM 60.1 °F - 49.3 °F 67% 29.80 in 10.0 mi West 16.1 mph 21.9 mph N/A   Overcast
12:53 PM 59.9 °F - 48.7 °F 67% 29.81 in 10.0 mi NW 17.3 mph 23.0 mph N/A   Overcast
1:12 PM 60.4 °F - 48.9 °F 66% 29.82 in 10.0 mi NW 15.0 mph 23.0 mph N/A   Mostly Cloudy
1:32 PM 60.4 °F - 48.7 °F 65% 29.83 in 10.0 mi WNW 15.0 mph 19.6 mph N/A   Mostly Cloudy
1:53 PM 60.8 °F - 47.8 °F 62% 29.84 in 10.0 mi West 13.8 mph 24.2 mph N/A   Mostly Cloudy
2:12 PM 58.6 °F - 47.5 °F 66% 29.85 in 10.0 mi WNW 11.5 mph 19.6 mph N/A   Overcast
2:32 PM 59.5 °F - 47.5 °F 64% 29.86 in 10.0 mi West 13.8 mph 20.7 mph N/A   Overcast
2:53 PM 58.5 °F - 46.8 °F 65% 29.87 in 10.0 mi WNW 13.8 mph 21.9 mph N/A   Overcast
3:12 PM 58.1 °F - 46.2 °F 65% 29.89 in 10.0 mi WNW 17.3 mph 24.2 mph N/A   Overcast
3:32 PM 58.6 °F - 46.6 °F 64% 29.89 in 10.0 mi NW 16.1 mph 19.6 mph N/A   Overcast
3:53 PM 58.5 °F - 45.9 °F 63% 29.90 in 10.0 mi WNW 12.7 mph 20.7 mph N/A   Overcast
4:12 PM 58.1 °F - 45.9 °F 64% 29.90 in 10.0 mi WNW 9.2 mph 20.7 mph N/A   Overcast
4:33 PM 57.6 °F - 45.3 °F 64% 29.90 in 10.0 mi NW 10.4 mph 17.3 mph N/A   Overcast
4:53 PM 57.4 °F - 45.5 °F 65% 29.91 in 10.0 mi WNW 12.7 mph 20.7 mph N/A   Overcast
5:12 PM 57.2 °F - 44.4 °F 62% 29.91 in 10.0 mi NW 13.8 mph - N/A   Overcast
5:33 PM 56.8 °F - 43.5 °F 61% 29.92 in 10.0 mi West 13.8 mph 19.6 mph N/A   Overcast
5:53 PM 56.5 °F - 43.9 °F 63% 29.92 in 10.0 mi NW 9.2 mph 18.4 mph N/A   Overcast
6:12 PM 56.1 °F - 43.0 °F 61% 29.93 in 10.0 mi NW 10.4 mph 16.1 mph N/A   Overcast
6:33 PM 55.4 °F - 42.8 °F 63% 29.93 in 10.0 mi NW 8.1 mph 17.3 mph N/A   Overcast
6:53 PM 54.7 °F - 42.3 °F 63% 29.94 in 10.0 mi NNW 8.1 mph - N/A   Overcast
7:12 PM 54.9 °F - 42.6 °F 63% 29.95 in 10.0 mi NNW 11.5 mph 17.3 mph N/A   Overcast
7:33 PM 54.0 °F - 41.9 °F 64% 29.95 in 10.0 mi NNW 12.7 mph - N/A   Overcast
7:53 PM 52.7 °F - 41.0 °F 64% 29.96 in 10.0 mi NNW 10.4 mph - N/A   Overcast
8:12 PM 52.7 °F - 41.7 °F 66% 29.97 in 10.0 mi NNW 9.2 mph - N/A   Overcast
8:33 PM 51.3 °F - 40.5 °F 67% 29.98 in 10.0 mi NW 11.5 mph 16.1 mph N/A   Overcast
8:52 PM 50.9 °F - 40.8 °F 68% 29.99 in 10.0 mi NW 8.1 mph - N/A   Overcast
9:13 PM 49.8 °F - 39.4 °F 67% 29.99 in 10.0 mi NW 10.4 mph - N/A   Overcast
9:33 PM 49.3 °F - 39.6 °F 69% 29.99 in 10.0 mi NNW 6.9 mph - N/A   Overcast
9:52 PM 49.1 °F - 39.6 °F 70% 30.00 in 10.0 mi NW 8.1 mph - N/A   Overcast
10:13 PM 48.9 °F - 39.4 °F 70% 30.00 in 10.0 mi NW 8.1 mph - N/A   Overcast
10:33 PM 47.7 °F - 39.6 °F 73% 30.01 in 10.0 mi NW 3.5 mph - N/A   Overcast
10:52 PM 46.4 °F 44.3 °F 39.2 °F 76% 30.02 in 10.0 mi NW 4.6 mph - N/A   Scattered Clouds
11:13 PM 45.1 °F - 39.7 °F 81% 30.02 in 10.0 mi Calm Calm - N/A   Clear
11:33 PM 44.8 °F - 39.2 °F 81% 30.02 in 10.0 mi Calm Calm - N/A   Clear
11:52 PM 43.3 °F - 40.3 °F 89% 30.03 in 10.0 mi Calm Calm - N/A   Clear